星链-5735 (STARLINK-5735 )

导读

STARLINK-5735是美国太空探索技术公司(SpaceX)星链(Starlink)星座的一颗互联网通信卫星,于2023年2月12日由美国使用猎鹰9号火箭发射升空。作为星链二代部署阶段的卫星之一,它运行于近地轨道,采用霍尔效应推进技术,可提供低延迟宽带互联网服务,支撑全球范围内的通信覆盖,扩展星链在民用、应急通信等多场景的服务能力。

基本信息
目录编号:
55603
目录名称:
STARLINK-5735
国际标识:
2023-020AL
轨道中心:
EARTH
卫星名称:
星链-5735
卫星全名:
星链-5735 (STARLINK-5735 )
卫星状态:
在轨 (已飞行1219 天)
发射日期:
2023-02-12 UTC
国别 :
美国 (US)
星等 :
--
轨道信息
数据来源 国际轨道数据 AOE轨道数据
星历时间 2026-06-14T14:44:29+0800
19小时前
查看轨道信息
2026-06-15T05:00:00+0800
5小时前
查看轨道信息
半长轴 6861.2km 6861.184km
偏心率 0.0001969 0.0002486
轨道倾角 43.006° 42.998°
近地点辐角 279.688° 216.635°
升交点赤经 168.573° 165.203°
平近点角 80.375° 174.468°
近地点 481.712km 481.341km
远地点 484.414km 484.753km
周期 94.267分钟 94.267分钟
每日圈数 15.275754 15.275807
详细信息
固有亮度:
5
最大亮度:
2.5
卫星平台:
Starlink v1.5
覆盖范围:
全球
运营商:
太空探索技术公司
运营商所在国:
美国
制造商(研发单位):
太空探索技术公司
制造商所在国:
美国
使用方式:
暂无
卫星简介
星链(Starlink)计划是由太空探索技术公司(SpaceX)提出的一个巨型低轨卫星互联网星座项目,计划在2019年至2024年间在太空搭建由约1.2万颗卫星组成的“星链”网络,其中1584颗将部署在地球上空550千米处的近地轨道,并从2020年开始工作。该卫星仍在工作。
2D轨道图
3D轨道图
轨道高度分析图
轨道倾角分析图
轨道综合分析图
查看轨道综合分析图